Location: Arrington
(35.8681°N, 86.7092°W)
Time: 14:35:55
(UTC+00:00)

ATLAS 2AS CENTAUR R/B - Pass Details

Date: 26 February 2020
Orbit: 929 x 1283 km, 63.7° (Epoch: 05 April)

Event Time Altitude Azimuth Distance (km) Brightness Sun altitude
Rises 02:34:08 0° 206° (SSW) 4,129 5.9 -36.2°
Reaches altitude 10° 02:36:50 10° 205° (SSW) 3,200 5.2 -36.7°
Enters shadow 02:38:58 21° 204° (SSW) 2,496 4.6 -37.1°
